Temperature
19 20 21 21 21 22 20 19 18 17 15 15 14 15 15 14 14 14 14 14 15 15 16 17 17 17 18 18 18 18 17 16 15 14 14 13 12 12 12 11 11 11 11 11
20 21 21 21 20 20 18 17 17 15 14 13 14 14 13 12 12 12 12 13 13 14 14 15 15 16 16 17 18 18 17 16 15 14 14 13 12 12 12 11 11 11 11 11
18 19 20 18 18 16 14 13 14 13 12 11 11 12 11 11 11 11 11 11 12 12 12 13 13 14 15 16 17 17 17 16 15 14 14 13 12 12 12 11 11 11 11 11
16 19 19 18 17 15 12 11 11 11 10 10 10 11 11 12 11 11 11 11 11 11 11 11 12 13 14 15 15 16 16 16 15 14 14 13 12 12 11 11 11 11 11 11
16 17 18 17 15 15 14 10 10 9 9 9 9 11 12 12 11 10 10 10 10 10 10 10 11 11 12 13 14 15 15 15 15 14 14 13 12 12 12 11 11 11 11 11
16 17 16 14 13 13 14 10 8 9 9 9 9 9 10 11 10 10 10 10 10 10 10 10 10 10 10 11 12 12 13 14 15 14 14 13 13 12 12 11 11 11 11 11
16 16 14 10 11 13 13 11 9 9 8 8 8 8 9 9 9 10 10 10 10 10 10 10 9 9 9 9 10 10 11 12 13 14 14 13 13 12 12 11 11 11 11 11
14 15 13 9 10 9 9 9 9 9 8 8 8 8 8 9 9 10 10 10 10 10 9 9 9 9 9 9 9 9 10 11 12 13 13 13 13 12 12 11 11 11 11 11
11 11 9 9 9 9 9 9 9 9 9 9 8 8 9 9 10 10 10 10 10 10 9 9 9 9 8 8 8 8 9 10 11 12 13 13 13 12 12 11 11 11 12 12
10 9 9 9 10 10 10 9 9 9 9 9 8 9 9 9 10 10 10 10 10 9 9 9 9 9 8 8 8 8 8 9 10 11 12 12 13 13 12 11 11 11 11 12
9 9 9 10 10 10 10 10 10 9 9 9 9 9 9 9 9 9 10 10 10 9 9 9 9 9 8 8 7 7 8 8 9 10 11 12 12 13 12 12 12 12 12 12
8 9 9 10 11 10 10 10 9 9 9 9 9 9 9 9 9 9 9 9 9 9 9 9 9 8 8 8 7 7 7 8 8 9 10 11 12 12 12 12 12 12 12 12
10 10 10 10 10 10 9 9 9 9 9 9 9 9 8 8 8 8 8 8 8 8 8 8 8 8 8 8 7 7 7 7 8 8 9 11 11 12 12 11 11 11 11 11
10 10 9 9 9 9 9 9 9 9 9 9 8 8 8 7 7 7 7 7 7 7 7 7 8 8 8 8 7 7 7 7 7 8 9 10 11 12 12 12 11 11 11 11
10 10 9 9 9 9 9 9 9 9 8 8 8 7 7 6 6 6 6 5 5 6 6 6 7 7 7 7 7 7 7 7 7 8 8 9 11 11 12 12 12 11 11 11
10 10 10 9 9 9 9 9 8 8 8 8 7 6 6 5 5 5 4 4 4 4 5 5 6 6 7 7 7 7 7 7 7 7 8 9 10 11 11 12 11 11 11 11
10 9 9 9 9 9 9 8 8 8 7 6 6 5 5 4 4 4 4 3 3 3 4 4 5 6 6 6 7 7 7 7 7 7 8 9 10 11 11 12 12 12 11 11
9 9 9 9 9 8 8 8 7 7 6 5 5 4 4 3 3 3 3 3 3 3 3 4 4 5 5 6 6 7 7 7 7 7 8 9 10 11 11 12 12 12 12 11
9 9 9 9 8 8 8 7 7 6 5 5 4 3 3 3 3 3 3 3 3 3 3 3 4 4 5 6 6 6 7 7 7 8 8 9 10 11 11 12 12 12 12 11
9 9 9 8 8 8 7 7 6 5 5 4 3 3 3 3 3 3 3 3 3 3 3 3 3 4 5 6 6 6 7 7 7 8 9 9 10 11 11 12 12 12 12 12
9 9 8 8 7 7 7 6 5 5 4 3 3 3 3 4 4 4 4 3 4 3 3 3 4 4 5 6 6 6 7 7 7 8 9 10 10 11 11 11 12 12 12 12
9 8 8 7 7 7 6 5 5 4 3 3 3 3 4 4 4 4 4 4 4 4 4 4 4 5 5 6 6 6 7 7 8 9 9 10 10 11 11 12 12 12 12 12
8 8 7 7 6 6 6 5 4 4 3 3 3 4 4 4 5 4 4 4 4 4 4 5 5 5 6 6 6 7 7 7 8 9 10 10 11 11 11 12 12 12 12 12
8 7 7 6 6 5 5 4 4 3 3 3 4 4 5 5 5 5 5 5 5 5 5 6 6 6 6 7 7 7 7 8 9 9 10 11 11 11 12 12 12 12 12 12
7 7 6 6 5 5 4 3 3 3 3 4 4 5 5 5 5 6 6 6 6 6 6 6 7 7 7 7 7 7 8 8 9 10 10 11 11 12 12 12 12 12 12 12
6 6 5 5 4 4 3 3 3 3 3 4 4 5 5 5 6 6 6 6 7 7 7 7 7 7 7 7 7 8 8 9 9 10 11 11 12 12 12 12 12 12 12 12
6 5 5 4 4 3 3 2 2 3 3 4 4 5 5 5 6 6 6 7 7 7 7 7 7 7 7 8 8 8 8 9 10 10 11 11 12 12 12 12 12 13 13 13
Wind_Speed
8 8 7 10 13 14 10 7 5 5 7 7 10 9 11 12 14 16 16 17 16 14 13 13 12 11 10 9 9 9 9 9 9 8 7 6 5 3 2 2 2 3 5 7
4 6 8 7 9 6 8 8 7 9 7 9 9 9 11 13 15 15 15 16 16 15 15 15 15 15 14 11 10 9 9 9 8 8 7 7 6 4 3 2 0 2 3 5
4 6 5 4 7 5 8 10 7 6 7 12 12 14 9 11 14 15 16 17 16 15 14 14 15 15 17 15 11 9 10 9 8 9 8 8 6 5 5 4 3 2 2 5
3 2 2 2 8 11 12 12 12 9 9 11 12 13 4 7 11 14 15 16 15 15 14 13 13 14 17 17 11 10 9 9 9 9 9 8 7 6 6 5 5 4 4 5
4 4 5 4 6 6 3 5 9 8 10 11 13 11 5 6 9 11 12 12 11 12 12 12 13 14 16 18 14 9 9 10 10 11 10 10 9 8 6 5 5 5 5 6
3 3 5 2 10 15 2 3 4 8 11 13 13 11 8 13 16 17 15 13 13 12 11 11 12 12 12 14 15 12 10 8 9 11 12 12 11 8 6 6 7 7 7 6
2 4 0 5 13 11 3 5 8 9 11 11 8 9 13 17 18 17 16 16 14 13 10 10 11 11 12 12 13 14 14 10 8 11 12 12 11 8 7 7 8 8 8 6
3 3 2 8 6 4 3 7 10 12 12 12 14 17 18 18 18 17 15 15 13 12 11 10 9 9 11 12 12 13 13 12 8 9 11 11 12 10 9 10 9 8 7 6
3 1 1 0 2 6 8 9 11 11 14 15 18 20 21 19 18 17 16 14 12 11 12 11 9 8 10 11 12 13 13 12 10 9 10 12 13 13 11 10 9 9 8 7
4 2 3 5 7 8 10 13 15 16 18 18 20 21 21 20 18 16 15 14 12 11 12 12 10 9 9 10 10 11 12 12 11 9 10 11 12 12 12 12 11 10 9 9
3 2 6 7 10 12 13 14 16 18 18 19 20 22 22 20 18 17 16 14 12 11 12 13 12 10 10 9 9 11 12 10 10 9 10 11 12 13 15 13 15 13 11 11
2 6 6 10 12 15 16 17 19 20 21 20 19 19 19 17 15 15 16 14 13 13 13 13 12 11 10 9 8 9 10 10 8 8 7 9 11 9 12 12 18 19 17 14
6 8 10 13 16 17 18 20 20 18 17 16 14 14 14 13 12 13 14 15 14 14 14 13 12 11 10 9 8 9 9 10 9 9 8 8 11 12 10 6 12 17 17 18
10 10 11 13 16 17 17 18 16 14 14 14 14 14 14 14 13 14 15 15 15 15 14 13 13 12 11 9 9 10 9 10 9 9 8 8 11 12 13 13 11 7 8 14
11 11 13 15 15 14 14 14 15 15 15 15 14 14 15 17 17 17 15 15 14 14 14 13 13 13 11 9 10 10 9 7 7 8 8 7 9 11 12 13 12 9 5 5
11 12 13 14 15 16 15 16 17 16 16 16 15 15 18 19 20 19 17 15 15 15 14 13 13 13 11 10 10 9 8 12 10 8 7 6 9 11 12 12 11 11 11 9
10 11 13 15 16 16 16 16 16 16 16 18 19 20 21 22 22 21 20 18 17 16 15 13 13 13 12 10 10 8 8 8 11 9 7 7 9 12 12 13 12 12 11 13
11 12 14 16 17 19 19 17 16 17 17 20 22 22 23 24 23 23 22 20 18 17 15 14 13 13 12 11 9 7 7 7 6 7 7 8 9 11 13 13 14 13 10 11
13 13 14 15 16 17 17 16 15 15 17 20 22 24 24 24 23 22 20 18 18 17 15 12 15 13 11 11 11 7 7 7 7 7 7 8 11 11 13 13 13 12 12 12
13 14 15 16 15 15 16 15 15 16 18 20 24 25 24 24 22 21 18 16 14 13 12 11 11 10 10 11 11 6 7 7 7 7 6 8 10 12 12 13 13 13 12 12
14 15 15 15 16 16 14 15 15 18 20 22 24 25 24 23 21 18 15 13 12 10 10 12 10 8 8 8 9 6 6 7 7 6 6 8 10 11 12 13 13 13 12 12
13 14 14 15 16 15 14 14 15 19 22 24 25 25 24 22 19 15 12 10 10 10 8 6 7 9 9 9 5 6 6 6 5 4 5 8 10 11 11 12 13 13 12 12
12 12 13 15 14 14 15 16 17 19 22 24 25 25 22 19 15 12 11 7 6 8 7 7 9 12 13 8 5 6 6 6 4 4 6 7 9 10 11 12 12 12 12 11
11 12 13 14 13 13 15 18 20 19 21 22 21 22 20 16 13 9 8 10 10 10 7 9 13 14 11 5 5 5 5 4 3 4 5 6 8 9 9 11 11 11 12 12
11 11 11 13 13 13 14 17 19 20 20 19 21 21 17 13 12 11 10 9 10 10 7 9 13 13 8 5 5 5 4 2 3 3 4 5 6 7 9 10 11 11 11 11
11 11 11 11 11 11 12 14 16 17 18 19 19 18 16 13 12 11 9 10 11 10 8 6 6 6 4 4 5 4 2 3 3 3 3 3 4 6 7 9 12 11 11 11
10 9 9 11 12 12 13 14 16 17 17 18 20 19 17 15 13 12 12 10 9 7 6 5 4 3 3 3 3 2 3 3 3 3 3 3 3 4 7 10 9 9 9 10
Wind_Direction
224 247 268 287 297 297 291 268 213 129 94 27 2 6 17 24 23 23 18 14 9 2 356 351 339 315 282 248 225 206 195 198 206 203 195 194 203 229 272 306 352 4 26 41
278 272 287 302 333 354 27 23 77 93 61 359 345 11 27 23 19 14 6 2 358 356 354 349 342 335 314 277 246 212 199 203 202 192 188 190 198 205 212 226 251 48 54 59
262 295 345 17 358 76 70 33 43 54 18 353 353 357 13 15 11 1 353 348 345 344 343 342 339 335 329 301 266 224 208 201 192 188 187 189 189 186 196 199 184 142 102 86
210 352 271 151 62 95 95 59 41 36 9 355 338 316 307 22 360 340 336 334 332 330 330 331 335 336 334 323 286 238 214 202 192 187 187 183 179 186 193 184 176 162 141 121
158 209 249 116 36 354 306 77 30 11 347 336 324 307 262 339 331 313 310 310 311 315 315 319 327 333 337 337 319 275 230 208 197 188 184 179 180 186 185 173 168 160 154 141
165 213 249 318 336 321 289 123 11 341 323 324 335 335 312 324 324 316 312 311 311 312 314 318 321 326 334 338 336 320 288 241 206 192 185 184 182 179 174 168 166 156 154 152
277 259 203 339 325 334 4 310 309 300 300 305 298 272 285 299 299 296 296 300 301 302 303 303 310 321 326 327 328 322 313 288 232 200 191 184 177 171 166 164 159 158 156 155
355 310 323 359 14 48 265 269 276 284 286 286 281 281 284 286 286 286 288 290 292 292 290 289 294 308 315 315 314 315 315 303 263 217 197 186 175 173 168 165 165 164 157 153
50 53 149 327 191 223 238 264 275 278 280 279 281 283 284 285 284 283 280 282 283 282 285 286 283 287 297 302 309 314 313 312 295 244 209 183 178 177 173 171 173 175 169 167
94 122 232 253 254 253 251 258 267 271 274 277 278 280 283 284 283 279 277 274 272 273 278 281 278 276 274 287 300 304 306 309 306 267 220 192 182 179 179 181 180 179 179 175
73 313 304 281 274 275 277 277 281 282 282 282 283 286 288 290 289 287 283 276 269 266 269 271 272 271 273 280 289 294 298 300 303 281 228 198 189 187 185 188 186 183 185 179
265 253 252 270 275 284 290 291 291 292 292 290 288 290 293 293 293 293 291 286 279 271 265 265 266 266 268 271 271 280 292 295 295 290 249 206 189 185 191 184 185 184 183 178
236 252 257 272 280 286 288 289 291 290 291 296 296 294 296 296 296 296 294 290 284 277 270 265 262 262 263 264 263 264 274 284 293 293 265 215 188 180 177 176 183 185 185 183
266 276 281 279 282 287 289 290 292 292 294 294 295 295 295 295 295 296 294 292 289 285 277 268 263 261 258 257 259 261 266 274 284 289 269 225 193 183 179 175 174 180 191 191
281 279 276 285 290 292 292 296 299 298 294 291 289 292 295 296 294 292 289 289 291 288 284 276 271 268 261 256 257 258 262 264 275 286 270 234 195 180 177 175 175 167 145 160
289 292 292 297 300 302 303 302 301 296 295 297 298 298 297 295 293 291 288 286 285 283 280 276 274 272 267 260 258 257 255 260 267 279 268 234 195 179 174 172 168 168 171 162
310 310 310 311 311 308 306 304 302 304 308 310 310 309 308 305 300 296 291 287 281 279 276 272 273 274 270 262 256 254 251 258 270 279 263 229 199 181 174 170 170 172 174 171
298 295 297 301 307 309 310 309 310 313 314 314 315 313 309 305 301 298 295 291 285 280 274 268 268 272 269 264 257 251 249 251 262 275 260 223 196 180 172 170 171 168 164 166
298 296 298 301 304 307 310 312 314 314 315 317 315 311 306 302 298 294 292 288 284 281 276 266 268 273 272 268 269 250 243 252 261 269 251 207 187 178 172 170 169 167 163 163
301 301 304 308 311 311 313 315 314 315 318 318 314 311 308 306 302 297 292 285 276 271 270 269 272 274 272 273 272 252 249 256 259 262 232 193 179 173 171 169 168 167 166 169
308 310 314 317 316 316 316 316 317 319 320 318 315 313 310 308 306 301 295 290 282 270 267 267 269 268 267 269 266 255 254 259 257 238 206 179 169 166 167 167 167 169 171 173
312 316 317 318 318 319 318 318 318 321 322 320 318 316 315 314 313 307 293 285 282 278 274 267 265 263 267 273 260 257 260 262 247 209 182 167 164 162 162 162 164 169 172 174
314 314 315 318 318 315 318 323 324 324 322 321 319 319 319 317 314 312 309 292 282 278 277 270 265 269 279 278 258 256 266 263 236 186 163 159 160 160 161 160 164 169 171 173
316 316 318 318 318 320 324 327 326 324 321 320 319 321 322 322 319 313 302 295 286 279 274 269 271 275 278 262 252 254 265 258 209 159 146 147 153 155 159 162 165 169 173 174
316 318 320 324 328 326 324 325 326 325 325 325 324 326 327 323 319 318 314 308 299 288 278 274 274 275 265 243 245 251 257 223 159 130 122 133 146 155 161 164 167 169 173 179
319 323 323 322 323 322 325 328 327 326 326 327 328 329 329 329 325 325 322 314 304 296 287 279 276 268 241 234 240 242 224 160 142 128 125 133 146 157 165 169 169 172 176 181
323 326 328 330 330 330 329 328 325 325 324 326 328 328 328 332 332 332 328 324 320 310 296 286 272 252 234 225 209 180 155 143 140 139 143 145 153 170 173 168 169 172 176 179
Height
1517 1512 1509 1508 1504 1499 1501 1503 1511 1515 1518 1519 1515 1511 1508 1504 1500 1497 1494 1491 1489 1487 1485 1482 1479 1477 1473 1470 1466 1463 1461 1459 1458 1457 1456 1455 1454 1454 1453 1451 1449 1446 1443 1440
1514 1507 1505 1506 1504 1501 1506 1507 1509 1515 1521 1520 1517 1513 1509 1506 1503 1500 1497 1494 1490 1486 1483 1479 1476 1472 1468 1465 1462 1459 1456 1455 1454 1454 1453 1452 1452 1452 1452 1451 1450 1448 1446 1443
1522 1511 1509 1517 1513 1513 1519 1521 1518 1524 1527 1523 1517 1514 1511 1507 1503 1500 1497 1493 1490 1486 1482 1478 1473 1468 1463 1458 1456 1453 1451 1450 1450 1450 1449 1449 1449 1450 1450 1451 1450 1449 1448 1447
1522 1517 1523 1520 1514 1516 1524 1529 1528 1528 1527 1524 1520 1515 1510 1506 1503 1498 1494 1490 1487 1484 1479 1475 1469 1463 1457 1452 1448 1446 1445 1444 1445 1445 1445 1445 1446 1447 1449 1450 1450 1450 1450 1450
1524 1524 1517 1517 1517 1519 1520 1529 1531 1529 1526 1522 1517 1510 1505 1503 1499 1495 1491 1487 1483 1479 1475 1471 1466 1459 1453 1447 1442 1440 1439 1438 1439 1439 1440 1441 1442 1444 1446 1448 1449 1450 1451 1451
1520 1523 1527 1525 1521 1517 1517 1529 1530 1527 1523 1518 1512 1508 1501 1497 1493 1489 1486 1483 1478 1474 1470 1466 1461 1456 1450 1444 1438 1435 1434 1433 1433 1433 1434 1435 1437 1440 1443 1445 1448 1449 1451 1452
1521 1524 1523 1532 1524 1517 1524 1529 1527 1523 1519 1516 1513 1509 1501 1495 1490 1486 1482 1478 1474 1469 1464 1460 1456 1451 1446 1441 1435 1431 1427 1426 1426 1427 1428 1430 1432 1435 1439 1443 1445 1447 1449 1451
1526 1526 1532 1534 1529 1532 1535 1528 1523 1520 1516 1512 1507 1501 1495 1489 1484 1479 1475 1471 1467 1462 1458 1455 1451 1446 1441 1436 1431 1426 1421 1418 1418 1419 1421 1423 1426 1430 1434 1439 1442 1444 1447 1449
1533 1537 1537 1533 1532 1531 1528 1524 1519 1516 1511 1506 1500 1493 1488 1482 1477 1472 1467 1463 1459 1455 1451 1447 1444 1440 1435 1430 1425 1420 1415 1411 1410 1411 1414 1416 1419 1423 1428 1433 1437 1440 1443 1446
1534 1536 1535 1532 1530 1527 1523 1519 1514 1509 1504 1499 1493 1486 1480 1474 1469 1464 1459 1455 1451 1447 1442 1439 1436 1433 1428 1424 1419 1414 1409 1405 1402 1403 1405 1408 1412 1416 1420 1426 1431 1435 1438 1442
1536 1536 1533 1530 1526 1522 1517 1513 1508 1503 1498 1493 1487 1479 1473 1467 1461 1455 1450 1445 1441 1438 1433 1430 1427 1424 1420 1416 1411 1407 1402 1398 1395 1395 1396 1400 1404 1407 1412 1418 1423 1428 1433 1437
1539 1535 1533 1527 1521 1517 1512 1507 1502 1496 1490 1485 1480 1473 1466 1459 1454 1448 1442 1437 1432 1428 1424 1421 1418 1414 1412 1408 1404 1400 1395 1392 1388 1387 1388 1391 1396 1401 1406 1412 1418 1424 1429 1433
1534 1531 1527 1522 1517 1512 1507 1501 1496 1490 1485 1478 1472 1466 1459 1452 1445 1439 1434 1429 1424 1419 1415 1412 1408 1405 1402 1400 1396 1392 1389 1385 1381 1379 1380 1383 1388 1393 1398 1405 1412 1419 1424 1430
1531 1527 1523 1517 1512 1507 1501 1495 1490 1484 1477 1471 1464 1456 1450 1442 1435 1429 1424 1419 1414 1409 1405 1402 1398 1395 1393 1391 1388 1384 1381 1378 1375 1372 1372 1375 1380 1385 1391 1397 1404 1411 1418 1424
1528 1524 1519 1512 1506 1501 1495 1489 1481 1474 1467 1460 1453 1446 1439 1431 1424 1417 1412 1407 1402 1398 1394 1391 1388 1385 1384 1382 1379 1376 1373 1370 1368 1365 1365 1368 1373 1379 1384 1391 1397 1404 1411 1418
1523 1519 1514 1508 1501 1494 1488 1480 1472 1464 1456 1449 1442 1435 1428 1420 1411 1404 1399 1394 1389 1385 1382 1379 1376 1374 1374 1372 1370 1367 1365 1363 1362 1359 1359 1362 1367 1372 1378 1384 1391 1398 1405 1412
1519 1513 1507 1501 1494 1487 1480 1473 1465 1456 1448 1440 1432 1423 1415 1407 1398 1391 1385 1380 1376 1371 1369 1366 1364 1364 1363 1362 1361 1359 1357 1356 1355 1353 1353 1356 1361 1367 1373 1379 1386 1393 1399 1406
1517 1511 1504 1497 1490 1481 1472 1465 1457 1448 1440 1431 1422 1413 1403 1395 1386 1377 1371 1366 1361 1358 1355 1354 1353 1353 1353 1352 1352 1351 1349 1348 1347 1346 1347 1350 1355 1362 1368 1375 1382 1389 1395 1402
1511 1505 1498 1491 1483 1475 1466 1458 1449 1441 1432 1423 1412 1402 1392 1383 1374 1366 1359 1354 1349 1345 1343 1343 1343 1343 1343 1343 1344 1343 1343 1342 1340 1340 1341 1345 1351 1358 1364 1371 1378 1385 1391 1397
1504 1498 1491 1484 1477 1469 1460 1451 1443 1434 1424 1414 1403 1392 1381 1372 1363 1355 1348 1343 1339 1336 1334 1334 1334 1334 1335 1335 1336 1336 1336 1335 1334 1334 1336 1341 1347 1354 1362 1368 1375 1382 1388 1394
1498 1491 1485 1478 1470 1462 1455 1446 1437 1427 1417 1406 1395 1384 1373 1363 1354 1346 1339 1334 1330 1328 1327 1326 1327 1328 1329 1330 1330 1330 1330 1329 1328 1329 1332 1338 1345 1352 1359 1366 1373 1379 1385 1391
1493 1486 1479 1472 1464 1457 1449 1441 1432 1422 1410 1398 1387 1377 1366 1356 1347 1340 1334 1329 1325 1323 1322 1322 1323 1323 1325 1325 1325 1325 1324 1324 1324 1326 1330 1336 1344 1351 1357 1364 1370 1377 1382 1388
1489 1482 1475 1468 1460 1452 1444 1436 1426 1416 1404 1393 1382 1371 1361 1353 1344 1337 1330 1326 1322 1321 1320 1320 1320 1321 1321 1321 1321 1321 1320 1321 1322 1325 1330 1337 1343 1350 1356 1363 1369 1375 1380 1385
1485 1478 1471 1464 1457 1448 1439 1430 1421 1411 1400 1390 1379 1369 1359 1350 1342 1336 1331 1326 1323 1321 1319 1319 1319 1319 1319 1319 1318 1317 1317 1318 1321 1326 1331 1338 1344 1350 1356 1362 1368 1374 1379 1384
1481 1475 1467 1460 1453 1445 1436 1426 1416 1406 1396 1386 1376 1366 1357 1350 1343 1336 1330 1326 1323 1320 1319 1318 1317 1317 1316 1316 1315 1315 1316 1318 1322 1327 1333 1339 1345 1350 1356 1361 1367 1372 1377 1382
1478 1472 1465 1459 1451 1443 1433 1424 1414 1404 1395 1385 1375 1365 1356 1349 1342 1336 1331 1326 1323 1320 1318 1316 1315 1314 1314 1314 1314 1314 1316 1319 1324 1329 1335 1340 1345 1350 1356 1361 1366 1371 1376 1380
1474 1468 1461 1453 1446 1438 1430 1421 1413 1403 1394 1386 1376 1366 1357 1350 1343 1336 1331 1327 1323 1319 1317 1315 1314 1313 1313 1313 1314 1316 1318 1322 1328 1333 1337 1342 1346 1351 1355 1360 1365 1370 1374 1378